When you browse on this site, cookies collect data to enhance your experience and personalize the content and advertising you see.
Visit our Privacy Policy to learn more. By continuing to use the site, you agree to this use of cookies and data.

Meteo pe oră la Aylesbury

Astăzi, 28 Septembrie, Luni

Timp Temperatura Precipitaţii Vânt Presiune Umiditate
00:00 +8°C° 0 mm 2 m/s 752 mmHg 85%
01:00 +8°C° 0 mm 3 m/s 752 mmHg 83%
02:00 +7°C° 0 mm 3 m/s 752 mmHg 81%
03:00 +7°C° 0 mm 3 m/s 751 mmHg 80%
04:00 +7°C° 0 mm 3 m/s 751 mmHg 81%
05:00 +6°C° 0 mm 2 m/s 751 mmHg 81%
06:00 +6°C° 0 mm 2 m/s 752 mmHg 83%
07:00 +7°C° 0 mm 2 m/s 752 mmHg 79%
08:00 +8°C° 0 mm 2 m/s 752 mmHg 74%
09:00 +10°C° 0 mm 3 m/s 752 mmHg 70%
10:00 +12°C° 0 mm 3 m/s 752 mmHg 66%
11:00 +13°C° 0 mm 3 m/s 752 mmHg 63%
12:00 +15°C° 0 mm 4 m/s 752 mmHg 60%
13:00 +17°C° 0 mm 4 m/s 751 mmHg 63%
14:00 +17°C° 0 mm 4 m/s 751 mmHg 66%
15:00 +18°C° 0 mm 4 m/s 751 mmHg 69%
16:00 +17°C° 0 mm 3 m/s 751 mmHg 75%
17:00 +16°C° 0 mm 2 m/s 751 mmHg 80%
18:00 +15°C° 0 mm 2 m/s 751 mmHg 86%
19:00 +15°C° 0 mm 2 m/s 751 mmHg 88%
20:00 +15°C° 0 mm 2 m/s 752 mmHg 91%
21:00 +15°C° 0 mm 2 m/s 752 mmHg 94%
22:00 +15°C° 0 mm 2 m/s 752 mmHg 95%
23:00 +15°C° 0 mm 2 m/s 752 mmHg 96%

Mâine, 29 Septembrie, Marţi

Timp Temperatura Precipitaţii Vânt Presiune Umiditate
00:00 +15°C° 0 mm 2 m/s 752 mmHg 97%
01:00 +14°C° 0.1 mm 2 m/s 752 mmHg 96%
02:00 +14°C° 0.1 mm 2 m/s 752 mmHg 95%
03:00 +14°C° 0.1 mm 2 m/s 752 mmHg 95%
04:00 +13°C° 0 mm 2 m/s 752 mmHg 92%
05:00 +13°C° 0 mm 2 m/s 752 mmHg 90%
06:00 +13°C° 0 mm 2 m/s 753 mmHg 87%
07:00 +13°C° 0 mm 2 m/s 753 mmHg 85%
08:00 +14°C° 0 mm 2 m/s 753 mmHg 82%
09:00 +13°C° 0 mm 3 m/s 753 mmHg 80%
10:00 +15°C° 0 mm 2 m/s 753 mmHg 76%
11:00 +16°C° 0 mm 2 m/s 753 mmHg 72%
12:00 +17°C° 0 mm 2 m/s 753 mmHg 68%
13:00 +17°C° 0 mm 2 m/s 753 mmHg 65%
14:00 +17°C° 0 mm 2 m/s 753 mmHg 62%
15:00 +17°C° 0 mm 2 m/s 753 mmHg 59%
16:00 +16°C° 0 mm 2 m/s 753 mmHg 62%
17:00 +15°C° 0 mm 2 m/s 752 mmHg 64%
18:00 +14°C° 0 mm 2 m/s 752 mmHg 67%
19:00 +13°C° 0 mm 2 m/s 753 mmHg 69%
20:00 +13°C° 0 mm 2 m/s 753 mmHg 72%
21:00 +12°C° 0 mm 2 m/s 753 mmHg 75%
22:00 +12°C° 0 mm 2 m/s 752 mmHg 76%
23:00 +10°C° 0 mm 2 m/s 752 mmHg 78%

Poimâine, 30 Septembrie, Miercuri

Timp Temperatura Precipitaţii Vânt Presiune Umiditate
00:00 +10°C° 0 mm 2 m/s 752 mmHg 80%
01:00 +9°C° 0 mm 2 m/s 751 mmHg 81%
02:00 +9°C° 0 mm 2 m/s 751 mmHg 81%
03:00 +9°C° 0 mm 2 m/s 750 mmHg 82%
04:00 +9°C° 0 mm 2 m/s 750 mmHg 82%
05:00 +8°C° 0 mm 2 m/s 750 mmHg 83%
06:00 +8°C° 0 mm 2 m/s 749 mmHg 84%
07:00 +10°C° 0 mm 3 m/s 749 mmHg 81%
08:00 +11°C° 0 mm 4 m/s 749 mmHg 79%
09:00 +13°C° 0 mm 5 m/s 748 mmHg 76%
10:00 +13°C° 0.2 mm 5 m/s 748 mmHg 79%
11:00 +13°C° 0.2 mm 4 m/s 747 mmHg 81%
12:00 +13°C° 0.2 mm 4 m/s 746 mmHg 83%
13:00 +13°C° 0.1 mm 4 m/s 745 mmHg 84%
14:00 +13°C° 0.1 mm 5 m/s 745 mmHg 84%
15:00 +13°C° 0.1 mm 6 m/s 744 mmHg 85%
16:00 +13°C° 1.6 mm 5 m/s 743 mmHg 88%
17:00 +13°C° 1.6 mm 5 m/s 743 mmHg 91%
18:00 +12°C° 1.6 mm 4 m/s 742 mmHg 94%
19:00 +12°C° 1.2 mm 4 m/s 742 mmHg 94%
20:00 +12°C° 1.2 mm 3 m/s 741 mmHg 95%
21:00 +12°C° 1.2 mm 3 m/s 741 mmHg 95%
22:00 +12°C° 0.4 mm 3 m/s 741 mmHg 95%
23:00 +11°C° 0.4 mm 3 m/s 740 mmHg 94%

1 Octombrie, Joi

Timp Temperatura Precipitaţii Vânt Presiune Umiditate
00:00 +11°C° 0.4 mm 3 m/s 740 mmHg 94%
01:00 +11°C° 0.3 mm 3 m/s 740 mmHg 93%
02:00 +10°C° 0.3 mm 3 m/s 740 mmHg 93%
03:00 +10°C° 0.3 mm 3 m/s 740 mmHg 93%
04:00 +9°C° 0.2 mm 3 m/s 740 mmHg 94%
05:00 +9°C° 0.2 mm 3 m/s 740 mmHg 95%
06:00 +8°C° 0.2 mm 2 m/s 741 mmHg 95%
07:00 +9°C° 0.1 mm 3 m/s 741 mmHg 91%
08:00 +10°C° 0.1 mm 3 m/s 741 mmHg 87%
09:00 +10°C° 0.1 mm 4 m/s 741 mmHg 83%
10:00 +11°C° 0.1 mm 4 m/s 741 mmHg 75%
11:00 +12°C° 0.1 mm 4 m/s 741 mmHg 67%
12:00 +13°C° 0.1 mm 4 m/s 740 mmHg 58%
13:00 +13°C° 0 mm 3 m/s 740 mmHg 58%
14:00 +13°C° 0 mm 3 m/s 739 mmHg 58%
15:00 +14°C° 0 mm 3 m/s 739 mmHg 58%
16:00 +12°C° 0.1 mm 3 m/s 738 mmHg 65%
17:00 +11°C° 0.1 mm 3 m/s 738 mmHg 72%
18:00 +10°C° 0.1 mm 3 m/s 737 mmHg 78%
19:00 +10°C° 0.7 mm 3 m/s 737 mmHg 82%
20:00 +10°C° 0.7 mm 4 m/s 737 mmHg 85%
21:00 +10°C° 0.7 mm 4 m/s 736 mmHg 88%
22:00 +10°C° 1.4 mm 3 m/s 736 mmHg 89%
23:00 +9°C° 1.4 mm 3 m/s 736 mmHg 90%

2 Octombrie, Vineri

Timp Temperatura Precipitaţii Vânt Presiune Umiditate
00:00 +9°C° 1.4 mm 2 m/s 736 mmHg 92%
01:00 +8°C° 0 mm 2 m/s 735 mmHg 92%
02:00 +8°C° 0 mm 2 m/s 735 mmHg 92%
03:00 +8°C° 0 mm 2 m/s 735 mmHg 92%
04:00 +8°C° 0 mm 2 m/s 735 mmHg 92%
05:00 +8°C° 0 mm 2 m/s 735 mmHg 93%
06:00 +8°C° 0 mm 3 m/s 735 mmHg 93%
07:00 +8°C° 0 mm 4 m/s 735 mmHg 90%
08:00 +10°C° 0 mm 4 m/s 734 mmHg 87%
09:00 +10°C° 0 mm 5 m/s 734 mmHg 84%
10:00 +10°C° 0.5 mm 7 m/s 733 mmHg 85%
11:00 +10°C° 0.5 mm 8 m/s 732 mmHg 85%
12:00 +10°C° 0.5 mm 9 m/s 731 mmHg 86%
13:00 +10°C° 2 mm 8 m/s 731 mmHg 86%
14:00 +11°C° 2 mm 7 m/s 730 mmHg 86%
15:00 +11°C° 2 mm 6 m/s 730 mmHg 86%
16:00 +10°C° 0.3 mm 6 m/s 731 mmHg 85%
17:00 +10°C° 0.3 mm 5 m/s 732 mmHg 83%
18:00 +9°C° 0.3 mm 5 m/s 733 mmHg 82%
19:00 +9°C° 0 mm 5 m/s 734 mmHg 82%
20:00 +9°C° 0 mm 5 m/s 734 mmHg 82%
21:00 +8°C° 0 mm 5 m/s 735 mmHg 82%
22:00 +8°C° 0 mm 5 m/s 736 mmHg 83%
23:00 +8°C° 0 mm 4 m/s 736 mmHg 85%

3 Octombrie, Sâmbătă

Timp Temperatura Precipitaţii Vânt Presiune Umiditate
00:00 +8°C° 0 mm 4 m/s 737 mmHg 86%
01:00 +8°C° 0 mm 4 m/s 737 mmHg 87%
02:00 +8°C° 0 mm 4 m/s 737 mmHg 88%
03:00 +8°C° 0 mm 4 m/s 737 mmHg 89%
04:00 +8°C° 0 mm 4 m/s 737 mmHg 89%
05:00 +8°C° 0 mm 4 m/s 737 mmHg 88%
06:00 +8°C° 0 mm 4 m/s 738 mmHg 87%
07:00 +8°C° 0.3 mm 4 m/s 738 mmHg 88%
08:00 +10°C° 0.3 mm 4 m/s 738 mmHg 89%
09:00 +10°C° 0.3 mm 4 m/s 738 mmHg 90%
10:00 +11°C° 0.2 mm 4 m/s 738 mmHg 87%
11:00 +11°C° 0.2 mm 4 m/s 739 mmHg 84%
12:00 +12°C° 0.2 mm 4 m/s 739 mmHg 81%
13:00 +12°C° 0.1 mm 4 m/s 739 mmHg 79%
14:00 +13°C° 0.1 mm 4 m/s 739 mmHg 77%
15:00 +13°C° 0.1 mm 4 m/s 739 mmHg 75%
16:00 +12°C° 0.1 mm 4 m/s 740 mmHg 79%
17:00 +11°C° 0.1 mm 3 m/s 740 mmHg 83%
18:00 +10°C° 0.1 mm 3 m/s 740 mmHg 87%
19:00 +10°C° 0 mm 3 m/s 741 mmHg 88%
20:00 +9°C° 0 mm 3 m/s 741 mmHg 89%
21:00 +9°C° 0 mm 3 m/s 741 mmHg 90%
22:00 +9°C° 0 mm 3 m/s 741 mmHg 90%
23:00 +9°C° 0 mm 3 m/s 741 mmHg 91%
Arată mai mult